Regional Weather Roundup
Issued by NWS

Home | Current Version | Previous Version | Graphics & Text | Print | Product List | Glossary On
Versions: 1 2 3 4 5 6 7 8 9 10 11 12 13 14 15 16 17 18 19 20 21 22 23 24 25 26 27 28 29 30 31 32 33 34 35 36 37 38 39 40 41 42 43 44 45 46 47 48 49 50
000
ASUS43 KDMX 061601
RWRIA

WEATHER ROUNDUP FOR IOWA
NATIONAL WEATHER SERVICE DES MOINES IA
1000 AM CST TUE DEC 06 2016

NOTE: "FAIR" INDICATES FEW OR NO CLOUDS BELOW 12,000 FEET WITH NO
SIGNIFICANT WEATHER AND/OR OBSTRUCTIONS TO VISIBILITY.

* - THESE STATIONS ARE NOT NWS STATIONS...THUS NOT UNDER NWS
QUALITY CONTROL.  THEY ALSO DO NOT REPORT WEATHER SUCH
AS PRECIPITATION OR FOG.

IAZ001>003-012>014-020>022-031>034-043>046-061700-
   NORTHWEST IOWA

CITY           SKY/WX    TMP DP  RH WIND       PRES   REMARKS
CARROLL *      SUNNY     25  16  68 W17G25    29.94R WCI  11
DENISON *      SUNNY     23  14  68 W21G30    29.95R WCI   8
LE MARS *      PTSUNNY   21  10  63 W25G32    29.96R WCI   4
ORANGE CITY *  MOSUNNY   19  10  68 W25G31    29.90R WCI   2
SIOUX CITY     SUNNY     25  11  55 NW23G31   29.97R WCI  10
SPENCER        CLOUDY    20  11  68 W33G44    29.87S WCI   0
STORM LAKE *   PTSUNNY   21  12  68 W30G37    29.90R WCI   3
$$

IAZ055>058-069>071-079>083-090>094-061700-
   SOUTHWEST IOWA

CITY           SKY/WX    TMP DP  RH WIND       PRES   REMARKS
ATLANTIC *     SUNNY     25  14  63 W20       29.99R WCI  11
CLARINDA *       N/A     28  16  59 NW13      30.05R WCI  18
COUNCIL BLFS * SUNNY     25  14  63 NW15G23   30.01R WCI  12
CRESTON *      SUNNY     27  16  63 NW17G26   29.98R WCI  14
LAMONI         SUNNY     29  18  63 NW18G26   29.98R WCI  16
RED OAK *      SUNNY     27  14  59 NW16G24   30.02S WCI  14
SHENANDOAH *   SUNNY     28  14  54 NW16      30.05R WCI  17
$$

IAZ047>049-059>061-072>074-084-061700-
   CENTRAL IOWA

CITY           SKY/WX    TMP DP  RH WIND       PRES   REMARKS
AMES           SUNNY     25  17  72 W21G30    29.94R WCI  11
ANKENY *       SUNNY     25 N/A N/A NW20      29.97R WCI  11
BOONE *        SUNNY     23  14  68 W20G29    29.92R WCI   8
CHARITON *       N/A     30  18  59 NW20      29.94R WCI  18
DES MOINES     MOSUNNY   28  15  58 NW20G30   29.96R WCI  15
GRINNELL*      MOSUNNY   28  22  77 W21G26    29.91R WCI  15
KNOXVILLE *    SUNNY     30  18  59 NW18G29   29.92R WCI  18
MARSHALLTOWN   PTSUNNY   27  21  78 W16       29.90R WCI  15
NEWTON *       MOSUNNY   27  19  74 W22       29.92R WCI  12
PELLA *        SUNNY     30  19  62 NW15G25   29.94R WCI  19
PERRY *          N/A     25  18  76 W21       29.96R WCI  10
$$

IAZ004>006-015-016-023>025-035-036-061700-
   NORTH CENTRAL IOWA

CITY           SKY/WX    TMP DP  RH WIND       PRES   REMARKS
ALGONA *       PTSUNNY   21  14  73 W21G31    29.86S WCI   6
CLARION *      PTSUNNY   21  16  79 W23       29.89R WCI   5
ESTHERVILLE    FLURRIES  19  11  70 W24G36    29.83S WCI   2
FORT DODGE *   SUNNY     23  12  63 W15G24    29.92R WCI  10
MASON CITY     PTSUNNY   22  15  75 W18G30    29.86R WCI   7
WEBSTER CITY * SUNNY     23  16  74 W22G30    29.90R WCI   8
$$

IAZ007>011-017>019-026>030-037>042-050>054-066-061700-
   NORTHEAST IOWA

CITY           SKY/WX    TMP DP  RH WIND       PRES   REMARKS
CEDAR RAPIDS   PTSUNNY   31  27  85 W20G29    29.86R WCI  19
CHARLES CITY * MOSUNNY   23  16  74 W16G26    29.84R WCI  10
CLINTON *      FOG       33  32  96 SW6       29.83R VSB 1/4 WCI  28
DECORAH *      MOSUNNY   27  19  74 W10G18    29.80R WCI  17
DUBUQUE        CLOUDY    32  31  96 W18       29.80R WCI  20
MONTICELLO *   CLOUDY    32  28  86 W21       29.83R WCI  20
OELWEIN *      MOSUNNY   27  21  80 W23       29.84R WCI  12
WATERLOO       SUNNY     26  18  71 W16G26    29.87R WCI  14
$$

IAZ064-065-067-068-078-061700-
   EAST CENTRAL IOWA

CITY           SKY/WX    TMP DP  RH WIND       PRES   REMARKS
DAVENPORT      CLOUDY    34  33  96 W13       29.84R FOG     WCI  25
IOWA CITY      PTSUNNY   34  25  69 NW18G25   29.89R WCI  23
MUSCATINE *    CLOUDY    36  30  80 NW13G21   29.87R WCI  27
QUAD CITIES    FOG       35  33  92 W7        29.84R VSB 3/4 WCI  29
$$

IAZ062-063-075>077-085>089-095>099-061700-
   SOUTHEAST IOWA

CITY           SKY/WX    TMP DP  RH WIND       PRES   REMARKS
BURLINGTON     CLOUDY    35  33  92 NW14G22   29.86R WCI  26
FAIRFIELD *    MOSUNNY   34  25  69 NW22G29   29.90R WCI  22
FORT MADISON * CLOUDY    36  30  80 NW18G25   29.89R WCI  25
KEOKUK *       CLOUDY    36  32  87 NW15G22   29.89R WCI  26
OSKALOOSA *      N/A     31  24  74 NW23G30   29.92R WCI  18
CENTERVILLE *    N/A     32  23  69 W15G21    29.95R WCI  22
OTTUMWA        SUNNY     33  22  63 NW17      29.92R WCI  22
WASHINGTON *   CLOUDY    34  28  80 W18G29    29.90R WCI  23
$$

ABBREVIATIONS USED IN REMARKS
   TC - TEMPERATURES IN CELSIUS
  WCI - WIND CHILL INDEX
   HX - HEAT INDEX
  VSB - VISIBILITY
$$





USA.gov is the U.S. government's official web portal to all federal, state and local government web resources and services.